• Join FlightAware (Why Join?)
  • Login
  • US Flag 
05:34PM EST


 

Airport Tracker/Info


-or-


 

Live Flight TrackerFlight Track Log ✈ AWE914 ✈ 03-Jul-2013 ✈ KPHX - KSTL

Flight Track Log - Related Links

Times and Time Zones

All times are in EDT time to prevent confusion due to time zone crossing. See the AWE914 flight status page for this flight to view local times or setup timezone preferences in your user account.

Time Position Orientation Groundspeed Altitude Reporting Facility
EDT Latitude Longitude Course Direction KTS MPH feet Rate Location/Type
03:05AM 33.4333 -112.0333 82° East 159 183 2,200  Level Phoenix TRACON
03:06AM 33.4333 -112.0833 270° West 186 214 3,300 1,260 Climbing Phoenix TRACON
03:07AM 33.4000 -112.1500 239° Southwest 243 280 4,500 1,500 Climbing Phoenix TRACON
03:08AM 33.3742 -112.1842 228° Southwest 285 328 5,700 2,100 Climbing Albuquerque Center
03:09AM 33.3056 -112.1394 151° Southeast 302 348 8,000 2,280 Climbing Albuquerque Center
03:10AM 33.3206 -112.0447 79° East 300 345 10,300 1,680 Climbing Albuquerque Center
03:11AM 33.5157 -111.2257 82° East  Level FlightAware Approximate
03:11AM 33.3486 -111.9403 72° East 335 386 11,400  Level Albuquerque Center
03:12AM 33.3806 -111.8242 72° East 369 425 13,300 2,040 Climbing Albuquerque Center
03:13AM 33.4131 -111.7064 72° East 375 432 15,600 2,100 Climbing Albuquerque Center
03:14AM 33.4453 -111.5872 72° East 379 436 17,600 2,040 Climbing Albuquerque Center
03:15AM 33.4781 -111.4675 72° East 382 440 19,700 1,560 Climbing Albuquerque Center
03:16AM 33.5069 -111.3411 75° East 396 456 20,800 1,200 Climbing Albuquerque Center
03:17AM 33.5225 -111.2036 82° East 418 481 22,200 1,260 Climbing Albuquerque Center
03:18AM 33.5375 -111.0650 83° East 422 486 23,400 1,140 Climbing Albuquerque Center
03:19AM 33.5542 -110.9222 82° East 430 495 24,600 1,140 Climbing Albuquerque Center
03:20AM 33.5914 -110.7831 72° East 441 507 25,700 1,140 Climbing Albuquerque Center
03:21AM 33.6358 -110.6483 68° East 438 504 26,900 600 Climbing Albuquerque Center
03:22AM 33.6800 -110.5108 69° East 441 507 27,000  Climbing Albuquerque Center
03:23AM 33.7331 -110.3475 69° East 441 507 27,000  Level Albuquerque Center
03:24AM 33.7764 -110.2106 69° East 440 506 27,000  Level Albuquerque Center
03:25AM 33.8206 -110.0767 68° East 435 501 27,000  Level Albuquerque Center
03:26AM 33.8592 -109.9503 70° East 435 501 27,000  Level Albuquerque Center
03:27AM 33.9078 -109.7989 69° East 435 501 27,000  Level Albuquerque Center
03:28AM 33.9500 -109.6672 69° East 438 504 27,000  Level Albuquerque Center
03:29AM 33.9906 -109.5369 69° East 437 503 27,000  Level Albuquerque Center
03:30AM 34.0361 -109.3853 70° East 432 497 27,000  Level Albuquerque Center
03:31AM 34.0775 -109.2567 69° East 431 496 27,000  Level Albuquerque Center
03:32AM 34.1181 -109.1272 69° East 432 497 27,000  Level Albuquerque Center
03:33AM 34.1792 -109.0069 58° Northeast 441 507 27,000  Level Albuquerque Center
03:34AM 34.2522 -108.8689 57° Northeast 439 505 27,000  Level Albuquerque Center
03:35AM 34.3150 -108.7492 58° Northeast 440 506 27,000  Level Albuquerque Center
03:36AM 34.3775 -108.6314 57° Northeast 437 503 27,000  Level Albuquerque Center
03:37AM 34.4475 -108.4906 59° Northeast 437 503 27,000  Level Albuquerque Center
03:38AM 34.5003 -108.3906 57° Northeast 428 493 27,000  Level Albuquerque Center
03:39AM 34.5561 -108.2625 62° Northeast 428 493 27,000  Level Albuquerque Center
03:40AM 34.6039 -108.1278 67° East 432 497 27,000  Level Albuquerque Center
03:41AM 34.6553 -107.9944 65° Northeast 436 502 27,000  Level Albuquerque Center
03:42AM 34.7072 -107.8597 65° Northeast 439 505 27,000  Level Albuquerque Center
03:43AM 34.7583 -107.7233 65° Northeast 442 509 27,000  Level Albuquerque Center
03:44AM 34.8106 -107.5881 65° Northeast 443 510 27,000  Level Albuquerque Center
03:45AM 34.8611 -107.4511 66° East 443 510 27,000  Level Albuquerque Center
03:46AM 34.9114 -107.3139 66° East 444 511 27,000  Level Albuquerque Center
03:47AM 34.9739 -107.1494 65° Northeast 448 516 27,000  Level Albuquerque Center
03:48AM 35.0222 -107.0192 66° East 442 509 27,000  Level Albuquerque Center
03:49AM 35.0700 -106.8878 66° East 442 509 27,000  Level Albuquerque Center
03:50AM 35.1250 -106.7369 66° East 437 503 27,000  Level Albuquerque Center
03:51AM 35.1733 -106.6050 66° East 442 509 27,000  Level Albuquerque Center
03:52AM 35.2203 -106.4747 66° East 450 518 27,000  Level Albuquerque Center
03:53AM 35.2706 -106.3344 66° East 452 520 27,000  Level Albuquerque Center
03:54AM 35.3247 -106.1808 67° East 440 506 27,000  Level Albuquerque Center
03:55AM 35.3731 -106.0450 66° East 434 499 27,000  Level Albuquerque Center
03:56AM 35.4189 -105.9264 65° Northeast 442 509 27,000  Level Albuquerque Center
03:57AM 35.4750 -105.7675 67° East 440 506 27,000  Level Albuquerque Center
03:58AM 35.5242 -105.6289 66° East 440 506 27,000  Level Albuquerque Center
03:59AM 35.5697 -105.4933 68° East 429 494 27,000  Level Albuquerque Center
04:00AM 35.6086 -105.3789 67° East 429 494 27,000  Level Albuquerque Center
04:01AM 35.6606 -105.2367 66° East 444 511 27,000 660 Level Albuquerque Center
04:02AM 35.7058 -105.1025 67° East 428 493 28,400 1,140 Climbing Albuquerque Center
04:03AM 35.7525 -104.9686 67° East 422 486 29,400 1,080 Climbing Albuquerque Center
04:04AM 35.7994 -104.8306 67° East 428 493 30,600 1,140 Climbing Albuquerque Center
04:05AM 35.8478 -104.6900 67° East 436 502 31,700 1,260 Climbing Albuquerque Center
04:06AM 35.8975 -104.5483 67° East 442 509 33,200 1,560 Climbing Albuquerque Center
04:07AM 35.9428 -104.4111 68° East 433 498 34,900 1,320 Climbing Albuquerque Center
04:08AM 35.9892 -104.2767 67° East 424 488 35,900 960 Climbing Albuquerque Center
04:09AM 36.0339 -104.1417 68° East 421 484 36,900 540 Climbing Albuquerque Center
04:10AM 36.0719 -104.0014 71° East 425 489 37,000  Climbing Albuquerque Center
04:11AM 36.1106 -103.8619 71° East 424 488 37,000  Level Albuquerque Center
04:12AM 36.1500 -103.7239 70° East 423 487 37,000  Level Albuquerque Center
04:13AM 36.1883 -103.5867 71° East 419 482 37,000  Level Albuquerque Center
04:14AM 36.2264 -103.4461 71° East 424 488 37,000  Level Albuquerque Center
04:15AM 36.2639 -103.3047 72° East 426 490 37,000  Level Albuquerque Center
04:16AM 36.3033 -103.1631 71° East 430 495 37,000  Level Albuquerque Center
04:17AM 36.3400 -103.0203 72° East 431 496 37,000  Level Albuquerque Center
04:18AM 36.3792 -102.8792 71° East 429 494 37,100  Climbing Albuquerque Center
04:19AM 36.4089 -102.7631 72° East 427 491 37,000 -60 Descending Albuquerque Center
04:20AM 36.4464 -102.6233 72° East 427 491 37,000  Level Albuquerque Center
04:21AM 36.4839 -102.4822 72° East 429 494 37,000  Level Albuquerque Center
04:22AM 36.5208 -102.3417 72° East 429 494 37,000  Level Albuquerque Center
04:23AM 36.5639 -102.1744 72° East 425 489 37,000  Level Albuquerque Center
04:24AM 36.5981 -102.0442 72° East 426 490 37,000  Level Albuquerque Center
04:25AM 36.6325 -101.9108 72° East 423 487 37,000  Level Albuquerque Center
04:26AM 36.6728 -101.7544 72° East 426 490 37,000  Level Albuquerque Center
04:27AM 36.7064 -101.6211 73° East 424 488 37,000  Level Albuquerque Center
04:28AM 36.7394 -101.4883 73° East 422 486 37,000  Level Albuquerque Center
04:29AM 36.7725 -101.3572 72° East 418 481 37,000  Level Albuquerque Center
04:30AM 36.8114 -101.2056 72° East 414 476 37,000  Level Albuquerque Center
04:31AM 36.8542 -101.0339 73° East 409 471 37,000  Level Kansas City Center
04:32AM 36.8850 -100.9058 73° East 406 467 37,000  Level Kansas City Center
04:34AM 36.9231 -100.7561 72° East 406 467 37,000  Level Kansas City Center
04:35AM 36.9542 -100.6286 73° East 405 466 37,000  Level Kansas City Center
04:36AM 36.9861 -100.5003 73° East 405 466 37,000  Level Kansas City Center
04:37AM 37.0222 -100.3492 73° East 406 467 37,000  Level Kansas City Center
04:38AM 37.0536 -100.2192 73° East 409 471 37,000  Level Kansas City Center
04:39AM 37.0853 -100.0886 73° East 411 473 37,000  Level Kansas City Center
04:40AM 37.1219 -99.9344 73° East 413 475 37,100  Climbing Kansas City Center
04:41AM 37.1531 -99.8019 74° East 415 478 37,000 -60 Descending Kansas City Center
04:42AM 37.1836 -99.6706 74° East 414 476 37,000  Level Kansas City Center
04:43AM 37.2208 -99.5150 73° East 416 479 37,000  Level Kansas City Center
04:44AM 37.2472 -99.3969 74° East 418 481 37,000  Level Kansas City Center
04:45AM 37.2803 -99.2567 73° East 417 480 37,000  Level Kansas City Center
04:46AM 37.3125 -99.1183 74° East 420 483 37,000  Level Kansas City Center
04:47AM 37.3453 -98.9714 74° East 425 489 37,000  Level Kansas City Center
04:48AM 37.3767 -98.8289 74° East 425 489 37,000  Level Kansas City Center
04:49AM 37.4089 -98.6869 74° East 423 487 37,000  Level Kansas City Center
04:50AM 37.4408 -98.5475 74° East 419 482 37,000  Level Kansas City Center
04:51AM 37.4792 -98.3769 74° East 423 487 37,000  Level Kansas City Center
04:52AM 37.5114 -98.2350 74° East 423 487 37,000  Level Kansas City Center
04:53AM 37.5422 -98.0919 75° East 426 490 37,000  Level Kansas City Center
04:54AM 37.5742 -97.9481 74° East 429 494 37,000  Level Kansas City Center
04:55AM 37.6044 -97.8022 75° East 434 499 37,000  Level Kansas City Center
04:56AM 37.6339 -97.6692 74° East 436 502 37,000  Level Kansas City Center
04:57AM 37.6658 -97.5225 75° East 433 498 37,000  Level Kansas City Center
04:58AM 37.7017 -97.3642 74° East 439 505 37,000  Level Kansas City Center
04:59AM 37.7319 -97.2156 76° East 439 505 37,000  Level Kansas City Center
05:00AM 37.7631 -97.0683 75° East 436 502 37,000  Level Kansas City Center
05:01AM 37.7942 -96.9189 75° East 440 506 37,000  Level Kansas City Center
05:02AM 37.8258 -96.7694 75° East 440 506 37,000  Level Kansas City Center
05:03AM 37.8567 -96.6172 76° East 446 513 37,000  Level Kansas City Center
05:04AM 37.8881 -96.4653 75° East 446 513 37,100  Climbing Kansas City Center
05:05AM 37.9186 -96.3150 76° East 443 510 37,000 -60 Descending Kansas City Center
05:06AM 37.9483 -96.1658 76° East 437 503 37,000  Level Kansas City Center
05:07AM 37.9794 -95.9961 77° East 432 497 37,000 -60 Level Kansas City Center
05:08AM 38.0058 -95.8528 77° East 437 503 36,900  Descending Kansas City Center
05:09AM 38.0319 -95.7064 77° East 444 511 37,000  Climbing Kansas City Center
05:10AM 38.0597 -95.5603 76° East 447 514 37,000  Level Kansas City Center
05:11AM 38.0897 -95.3878 77° East 449 517 37,000  Level Kansas City Center
05:12AM 38.1172 -95.2381 77° East 452 520 37,000  Level Kansas City Center
05:13AM 38.1431 -95.0878 78° East 456 525 37,000  Level Kansas City Center
05:14AM 38.1744 -94.9147 77° East 453 521 37,000  Level Kansas City Center
05:15AM 38.2000 -94.7633 78° East 456 525 37,000  Level Kansas City Center
05:16AM 38.2258 -94.6119 78° East 459 528 37,000  Level Kansas City Center
05:17AM 38.2572 -94.4328 77° East 463 533 37,000  Level Kansas City Center
05:18AM 38.2828 -94.2814 78° East 462 532 37,000  Level Kansas City Center
05:19AM 38.3086 -94.1311 78° East 459 528 37,000  Level Kansas City Center
05:20AM 38.3350 -93.9708 78° East 456 525 37,000  Level Kansas City Center
05:21AM 38.3597 -93.8133 79° East 453 521 37,000  Level Kansas City Center
05:22AM 38.3867 -93.6550 78° East 454 522 37,000  Level Kansas City Center
05:23AM 38.4114 -93.4953 79° East 457 526 37,000  Level Kansas City Center
05:24AM 38.4383 -93.3361 78° East 457 526 37,000  Level Kansas City Center
05:25AM 38.4642 -93.1758 78° East 458 527 37,000  Level Kansas City Center
05:26AM 38.4906 -93.0164 78° East 457 526 37,000 -720 Level Kansas City Center
05:27AM 38.5150 -92.8569 79° East 457 526 35,600 -2,220 Descending Kansas City Center
05:28AM 38.5394 -92.6975 79° East 455 524 32,600 -2,940 Descending Kansas City Center
05:29AM 38.5647 -92.5369 79° East 456 525 29,800 -2,640 Descending Kansas City Center
05:30AM 38.5886 -92.3781 79° East 454 522 27,300 -2,520 Descending Kansas City Center
05:31AM 38.6111 -92.2264 79° East 439 505 24,800 -2,400 Descending Kansas City Center
05:32AM 38.6336 -92.0792 79° East 423 487 22,500 -2,340 Descending Kansas City Center
05:33AM 38.6539 -91.9344 80° East 415 478 20,200 -2,220 Descending Kansas City Center
05:34AM 38.6758 -91.7928 79° East 407 468 18,100 -2,040 Descending Kansas City Center
05:35AM 38.6942 -91.6542 80° East 398 458 16,200 -1,800 Descending Kansas City Center
05:36AM 38.7125 -91.5369 79° East 391 450 14,500 -1,800 Descending Kansas City Center
05:37AM 38.7303 -91.4044 80° East 383 441 12,600 -1,860 Descending Kansas City Center
05:38AM 38.7489 -91.2764 79° East 370 426 10,800 -1,320 Descending Kansas City Center
05:39AM 38.7672 -91.1569 79° East 350 403 10,000 -900 Descending Kansas City Center
05:40AM 38.7831 -91.0467 80° East 320 368 9,000 -1,500 Descending Kansas City Center
05:41AM 38.7956 -90.9500 81° East 283 326 7,000 -1,800 Descending Kansas City Center
05:42AM 38.8094 -90.8514 80° East 281 323 5,500 -1,500 Descending Kansas City Center
05:43AM 38.8228 -90.7553 80° East 276 318 4,100 -780 Descending Kansas City Center
05:44AM 38.8350 -90.6600 81° East 271 312 4,000 -240 Descending Kansas City Center
05:45AM 38.8331 -90.5789 92° East 240 276 3,700 -300 Descending Kansas City Center